Location: Abundant Grace Fellowship
(35.0349°N, 90.0924°W)
Time: 22:29:51
(UTC+00:00)

SPOT 1/Viking Rocket - Pass Details

Date: 18 January 2026
Orbit: 772 x 790 km, 98.2° (Epoch: 10 February)

Event Time Altitude Azimuth Distance (km) Brightness Sun altitude
Rises 00:13:04 0° 166° (SSE) 3,255 6.8 -12.1°
Reaches altitude 10° 00:15:22 10° 166° (SSE) 2,328 6.0 -12.6°
Maximum altitude 00:20:31 89° 253° (WSW) 784 3.5 -13.6°
Drops below altitude 10° 00:25:40 10° 347° (NNW) 2,331 6.0 -14.6°
Sets 00:27:59 0° 348° (NNW) 3,260 6.7 -15.1°
